Weather in Isafjordur

Iceland     66°03′36″N   23°10′51″W
temp.,
°C
wind,
m/s
gust,
m/s
humid.,
%
clouds,
%
prec.,
mm/h
press.,
hPa
HPBL,
m
21 may, sat
sat2100:00+4nne3497100 0.0 999241
03:00+3nne4598100 0.0 1000290
06:00+3nne3497100 0.0 1001246
09:00+3nne3597100 0.0 1003306
12:00+3nne4696100 0.1 1004426
15:00+2nne5698100 0.5 1007272
18:00+1nne5797100 1.1 1008440
21:000nne5798100 0.2 1010501
22 may, sun
sun2200:000nne4698100 0.4 1011351
03:000nne3699100 0.1 1011309
06:00+1n3597100 0.2 1012376
09:00+1n3597100 0.1 1012383
12:00+2nne348886 0.1 1013401
15:00+4nne44669 0.0 1012563
18:00+4nne43565 0.0 1012528
21:00+3ne22575 0.0 1011308
23 may, mon
mon2300:00+1e22670 0.0 101081
03:000se21675 0.0 100820
06:00+1e11600 0.0 100779
09:00+3e11555 0.0 1005344
12:00+5e21555 0.0 1003689
15:00+7e22569 0.0 1001879
18:00+7e225961 0.0 1000872
21:00+5ese226138 0.0 999568
24 may, tue
tue2400:00+3ese22705 0.0 998153
03:00+2ese22779 0.0 99765
06:00+2ese227554 0.0 995112
09:00+4ese1169100 0.0 994350
12:00+6ene2265100 0.0 993874
15:00+6e2271100 0.1 993785
18:00+5ese2283100 0.8 993626
21:00+4ese228599 0.6 993499
25 may, wed
wed2500:00+3e228390 0.6 993407
03:00+2ene228967 0.0 992130
06:00+2ne2287100 0.0 993430
09:00+2ene2187100 0.0 993470
12:00+3ne1181100 0.1 993538
15:00+4ne1178100 0.0 993585
18:00+4ne2179100 0.0 994426
21:00+3nne2283100 0.0 995386